Time,TemperatureF,DewpointF,PressureIn,WindDirection,WindDirectionDegrees,WindSpeedMPH,WindSpeedGustMPH,Humidity,HourlyPrecipIn,Conditions,Clouds,dailyrainin,SoftwareType,DateUTC
2013-03-29 00:03:00,34.0,-99.9,-100.00,East,90,1.0,3.0,-999,-99.99,,,-99.99,,2013-03-29 04:03:00,
2013-03-29 00:13:00,34.0,-99.9,-100.00,East,90,1.0,3.0,-999,-99.99,,,-99.99,,2013-03-29 04:13:00,
2013-03-29 00:23:00,33.0,-99.9,-100.00,SE,124,0.0,1.0,-999,-99.99,,,-99.99,,2013-03-29 04:23:00,
2013-03-29 00:33:00,33.0,-99.9,-100.00,SE,124,0.0,1.0,-999,-99.99,,,-99.99,,2013-03-29 04:33:00,
2013-03-29 00:43:00,33.0,-99.9,-100.00,ESE,108,1.0,3.0,-999,-99.99,,,-99.99,,2013-03-29 04:43:00,
2013-03-29 00:53:00,33.0,-99.9,-100.00,ESE,108,1.0,3.0,-999,-99.99,,,-99.99,,2013-03-29 04:53:00,
2013-03-29 01:03:00,33.0,-99.9,-100.00,ESE,108,1.0,3.0,-999,-99.99,,,-99.99,,2013-03-29 05:03:00,
2013-03-29 01:13:00,33.0,-99.9,-100.00,ESE,108,1.0,3.0,-999,-99.99,,,-99.99,,2013-03-29 05:13:00,
2013-03-29 01:23:00,33.0,-99.9,-100.00,ENE,64,1.0,1.0,-999,-99.99,,,-99.99,,2013-03-29 05:23:00,
2013-03-29 01:33:00,33.0,-99.9,-100.00,North,-999,0.0,3.0,-999,-99.99,,,-99.99,,2013-03-29 05:33:00,
2013-03-29 01:53:00,33.0,-99.9,-100.00,North,-999,0.0,3.0,-999,-99.99,,,-99.99,,2013-03-29 05:53:00,
2013-03-29 02:03:00,33.0,-99.9,-100.00,North,-999,0.0,3.0,-999,-99.99,,,-99.99,,2013-03-29 06:03:00,
2013-03-29 02:13:00,33.0,-99.9,-100.00,North,-999,0.0,3.0,-999,-99.99,,,-99.99,,2013-03-29 06:13:00,
2013-03-29 02:23:00,32.0,-99.9,-100.00,North,-999,0.0,1.0,-999,-99.99,,,-99.99,,2013-03-29 06:23:00,
2013-03-29 02:32:00,32.0,-99.9,-100.00,NE,37,1.0,8.0,-999,-99.99,,,-99.99,,2013-03-29 06:32:00,
2013-03-29 02:42:00,32.0,-99.9,-100.00,NE,37,1.0,8.0,-999,-99.99,,,-99.99,,2013-03-29 06:42:00,
2013-03-29 02:52:00,32.0,-99.9,-100.00,NE,37,1.0,8.0,-999,-99.99,,,-99.99,,2013-03-29 06:52:00,
2013-03-29 03:03:00,30.0,-99.9,-100.00,SE,126,1.0,3.0,-999,-99.99,,,-99.99,,2013-03-29 07:03:00,
2013-03-29 03:12:00,30.0,-99.9,-100.00,SE,126,1.0,3.0,-999,-99.99,,,-99.99,,2013-03-29 07:12:00,
2013-03-29 03:22:00,31.0,-99.9,-100.00,SSE,160,1.0,2.0,-999,-99.99,,,-99.99,,2013-03-29 07:22:00,
2013-03-29 03:32:00,30.0,-99.9,-100.00,SE,126,1.0,3.0,-999,-99.99,,,-99.99,,2013-03-29 07:32:00,
2013-03-29 03:42:00,30.0,-99.9,-100.00,SE,126,1.0,3.0,-999,-99.99,,,-99.99,,2013-03-29 07:42:00,
2013-03-29 03:52:00,30.0,-99.9,-100.00,SE,126,1.0,3.0,-999,-99.99,,,-99.99,,2013-03-29 07:52:00,
2013-03-29 04:02:00,30.0,-99.9,-100.00,SE,126,1.0,3.0,-999,-99.99,,,-99.99,,2013-03-29 08:02:00,
2013-03-29 04:13:00,30.0,-99.9,-100.00,SE,126,1.0,3.0,-999,-99.99,,,-99.99,,2013-03-29 08:13:00,
2013-03-29 04:22:00,31.0,-99.9,-100.00,North,-999,0.0,0.0,-999,-99.99,,,-99.99,,2013-03-29 08:22:00,
2013-03-29 04:32:00,31.0,-99.9,-100.00,North,-999,0.0,0.0,-999,-99.99,,,-99.99,,2013-03-29 08:32:00,
2013-03-29 04:42:00,31.0,-99.9,-100.00,North,-999,0.0,2.0,-999,-99.99,,,-99.99,,2013-03-29 08:42:00,
2013-03-29 04:53:00,31.0,-99.9,-100.00,North,-999,0.0,2.0,-999,-99.99,,,-99.99,,2013-03-29 08:53:00,
2013-03-29 05:03:00,31.0,-99.9,-100.00,North,-999,0.0,2.0,-999,-99.99,,,-99.99,,2013-03-29 09:03:00,
2013-03-29 05:13:00,31.0,-99.9,-100.00,North,-999,0.0,2.0,-999,-99.99,,,-99.99,,2013-03-29 09:13:00,
2013-03-29 05:22:00,32.0,-99.9,-100.00,NE,50,0.0,1.0,-999,-99.99,,,-99.99,,2013-03-29 09:22:00,
2013-03-29 05:33:00,32.0,-99.9,-100.00,NE,50,0.0,1.0,-999,-99.99,,,-99.99,,2013-03-29 09:33:00,
2013-03-29 05:43:00,32.0,-99.9,-100.00,North,-999,0.0,1.0,-999,-99.99,,,-99.99,,2013-03-29 09:43:00,
2013-03-29 05:53:00,32.0,-99.9,-100.00,North,-999,0.0,1.0,-999,-99.99,,,-99.99,,2013-03-29 09:53:00,
2013-03-29 06:03:00,32.0,-99.9,-100.00,North,-999,0.0,1.0,-999,-99.99,,,-99.99,,2013-03-29 10:03:00,
2013-03-29 06:12:00,29.0,-99.9,-100.00,ENE,72,2.0,3.0,-999,-99.99,,,-99.99,,2013-03-29 10:12:00,
2013-03-29 06:23:00,29.0,-99.9,-100.00,East,90,2.0,3.0,-999,-99.99,,,-99.99,,2013-03-29 10:23:00,
2013-03-29 06:33:00,29.0,-99.9,-100.00,East,90,2.0,3.0,-999,-99.99,,,-99.99,,2013-03-29 10:33:00,
2013-03-29 06:43:00,29.0,-99.9,-100.00,ENE,72,2.0,3.0,-999,-99.99,,,-99.99,,2013-03-29 10:43:00,
2013-03-29 06:54:00,29.0,-99.9,-100.00,ENE,72,2.0,3.0,-999,-99.99,,,-99.99,,2013-03-29 10:54:00,
2013-03-29 07:04:00,29.0,-99.9,-100.00,ENE,72,2.0,3.0,-999,-99.99,,,-99.99,,2013-03-29 11:04:00,
2013-03-29 07:13:00,29.0,-99.9,-100.00,ENE,72,2.0,3.0,-999,-99.99,,,-99.99,,2013-03-29 11:13:00,
2013-03-29 07:24:00,28.0,-99.9,-100.00,East,92,4.0,4.0,-999,-99.99,,,-99.99,,2013-03-29 11:24:00,
2013-03-29 07:33:00,28.0,-99.9,-100.00,East,92,4.0,4.0,-999,-99.99,,,-99.99,,2013-03-29 11:33:00,
2013-03-29 07:43:00,28.0,-99.9,-100.00,East,92,4.0,4.0,-999,-99.99,,,-99.99,,2013-03-29 11:43:00,
2013-03-29 07:53:00,28.0,-99.9,-100.00,East,101,3.0,4.0,-999,-99.99,,,-99.99,,2013-03-29 11:53:00,
2013-03-29 08:03:00,28.0,-99.9,-100.00,East,101,3.0,4.0,-999,-99.99,,,-99.99,,2013-03-29 12:03:00,
2013-03-29 08:13:00,28.0,-99.9,-100.00,East,101,3.0,4.0,-999,-99.99,,,-99.99,,2013-03-29 12:13:00,
2013-03-29 08:23:00,29.0,-99.9,-100.00,East,84,3.0,3.0,-999,-99.99,,,-99.99,,2013-03-29 12:23:00,
2013-03-29 08:33:00,29.0,-99.9,-100.00,East,84,3.0,3.0,-999,-99.99,,,-99.99,,2013-03-29 12:33:00,
2013-03-29 08:43:00,29.0,-99.9,-100.00,East,84,3.0,3.0,-999,-99.99,,,-99.99,,2013-03-29 12:43:00,
2013-03-29 08:53:00,28.0,-99.9,-100.00,East,94,3.0,6.0,-999,-99.99,,,-99.99,,2013-03-29 12:53:00,
2013-03-29 09:03:00,28.0,-99.9,-100.00,East,94,3.0,6.0,-999,-99.99,,,-99.99,,2013-03-29 13:03:00,
2013-03-29 09:13:00,32.0,-99.9,-100.00,SE,124,2.0,5.0,-999,-99.99,,,-99.99,,2013-03-29 13:13:00,
2013-03-29 09:23:00,34.0,-99.9,-100.00,SSE,154,2.0,3.0,-999,-99.99,,,-99.99,,2013-03-29 13:23:00,
2013-03-29 09:33:00,32.0,-99.9,-100.00,SE,124,2.0,5.0,-999,-99.99,,,-99.99,,2013-03-29 13:33:00,
2013-03-29 09:43:00,32.0,-99.9,-100.00,SE,124,2.0,5.0,-999,-99.99,,,-99.99,,2013-03-29 13:43:00,
2013-03-29 09:53:00,32.0,-99.9,-100.00,SE,124,2.0,5.0,-999,-99.99,,,-99.99,,2013-03-29 13:53:00,
2013-03-29 10:03:00,32.0,-99.9,-100.00,SE,124,2.0,5.0,-999,-99.99,,,-99.99,,2013-03-29 14:03:00,
2013-03-29 10:13:00,32.0,-99.9,-100.00,SE,124,2.0,5.0,-999,-99.99,,,-99.99,,2013-03-29 14:13:00,
2013-03-29 10:22:00,35.0,-99.9,-100.00,SSW,204,4.0,4.0,-999,-99.99,,,-99.99,,2013-03-29 14:22:00,
2013-03-29 10:33:00,35.0,-99.9,-100.00,SSW,204,4.0,4.0,-999,-99.99,,,-99.99,,2013-03-29 14:33:00,
2013-03-29 10:43:00,38.0,-99.9,-100.00,SSW,196,1.0,3.0,-999,-99.99,,,-99.99,,2013-03-29 14:43:00,
2013-03-29 10:53:00,38.0,-99.9,-100.00,SSW,196,1.0,3.0,-999,-99.99,,,-99.99,,2013-03-29 14:53:00,
2013-03-29 11:03:00,38.0,-99.9,-100.00,SSW,196,1.0,3.0,-999,-99.99,,,-99.99,,2013-03-29 15:03:00,
2013-03-29 11:12:00,34.0,-99.9,-100.00,SSW,198,8.0,9.0,-999,-99.99,,,-99.99,,2013-03-29 15:12:00,
2013-03-29 11:22:00,35.0,-99.9,-100.00,SSW,196,7.0,8.0,-999,-99.99,,,-99.99,,2013-03-29 15:22:00,
2013-03-29 11:33:00,35.0,-99.9,-100.00,SSW,196,7.0,8.0,-999,-99.99,,,-99.99,,2013-03-29 15:33:00,
2013-03-29 11:43:00,35.0,-99.9,-100.00,SSW,196,7.0,8.0,-999,-99.99,,,-99.99,,2013-03-29 15:43:00,
2013-03-29 11:53:00,35.0,-99.9,-100.00,SSW,196,7.0,8.0,-999,-99.99,,,-99.99,,2013-03-29 15:53:00,
2013-03-29 12:03:00,35.0,-99.9,-100.00,South,181,6.0,8.0,-999,-99.99,,,-99.99,,2013-03-29 16:03:00,
2013-03-29 12:13:00,35.0,-99.9,-100.00,South,181,6.0,8.0,-999,-99.99,,,-99.99,,2013-03-29 16:13:00,
2013-03-29 12:23:00,36.0,-99.9,-100.00,South,186,6.0,8.0,-999,-99.99,,,-99.99,,2013-03-29 16:23:00,
2013-03-29 12:33:00,36.0,-99.9,-100.00,South,186,6.0,8.0,-999,-99.99,,,-99.99,,2013-03-29 16:33:00,
2013-03-29 12:43:00,36.0,-99.9,-100.00,South,186,6.0,8.0,-999,-99.99,,,-99.99,,2013-03-29 16:43:00,
2013-03-29 12:53:00,35.0,-99.9,-100.00,South,181,6.0,8.0,-999,-99.99,,,-99.99,,2013-03-29 16:53:00,
2013-03-29 13:04:00,35.0,-99.9,-100.00,South,181,6.0,8.0,-999,-99.99,,,-99.99,,2013-03-29 17:04:00,
2013-03-29 13:12:00,35.0,-99.9,-100.00,South,181,6.0,8.0,-999,-99.99,,,-99.99,,2013-03-29 17:12:00,
2013-03-29 13:23:00,37.0,-99.9,-100.00,South,189,5.0,6.0,-999,-99.99,,,-99.99,,2013-03-29 17:23:00,
2013-03-29 13:34:00,38.0,-99.9,-100.00,South,188,5.0,8.0,-999,-99.99,,,-99.99,,2013-03-29 17:34:00,
2013-03-29 13:44:00,38.0,-99.9,-100.00,South,188,5.0,8.0,-999,-99.99,,,-99.99,,2013-03-29 17:44:00,
2013-03-29 13:53:00,38.0,-99.9,-100.00,South,188,5.0,8.0,-999,-99.99,,,-99.99,,2013-03-29 17:53:00,
2013-03-29 14:03:00,38.0,-99.9,-100.00,South,188,5.0,8.0,-999,-99.99,,,-99.99,,2013-03-29 18:03:00,
2013-03-29 14:13:00,38.0,-99.9,-100.00,South,188,5.0,8.0,-999,-99.99,,,-99.99,,2013-03-29 18:13:00,
2013-03-29 14:23:00,38.0,-99.9,-100.00,SSW,196,6.0,8.0,-999,-99.99,,,-99.99,,2013-03-29 18:23:00,
2013-03-29 14:33:00,38.0,-99.9,-100.00,SSW,196,6.0,8.0,-999,-99.99,,,-99.99,,2013-03-29 18:33:00,
2013-03-29 14:43:00,38.0,-99.9,-100.00,SSW,196,6.0,8.0,-999,-99.99,,,-99.99,,2013-03-29 18:43:00,
2013-03-29 14:53:00,38.0,-99.9,-100.00,South,188,6.0,8.0,-999,-99.99,,,-99.99,,2013-03-29 18:53:00,
2013-03-29 15:03:00,38.0,-99.9,-100.00,South,188,6.0,8.0,-999,-99.99,,,-99.99,,2013-03-29 19:03:00,
2013-03-29 15:13:00,38.0,-99.9,-100.00,South,188,6.0,8.0,-999,-99.99,,,-99.99,,2013-03-29 19:13:00,
2013-03-29 15:23:00,40.0,-99.9,-100.00,SSW,199,4.0,5.0,-999,-99.99,,,-99.99,,2013-03-29 19:23:00,
2013-03-29 15:33:00,41.0,-99.9,-100.00,SSW,195,4.0,8.0,-999,-99.99,,,-99.99,,2013-03-29 19:33:00,
2013-03-29 15:43:00,41.0,-99.9,-100.00,SSW,195,4.0,8.0,-999,-99.99,,,-99.99,,2013-03-29 19:43:00,
2013-03-29 15:53:00,41.0,-99.9,-100.00,SSW,195,4.0,8.0,-999,-99.99,,,-99.99,,2013-03-29 19:53:00,
2013-03-29 16:03:00,41.0,-99.9,-100.00,SSW,195,4.0,8.0,-999,-99.99,,,-99.99,,2013-03-29 20:03:00,
2013-03-29 16:12:00,41.0,-99.9,-100.00,SSW,195,4.0,8.0,-999,-99.99,,,-99.99,,2013-03-29 20:12:00,
2013-03-29 16:23:00,45.0,-99.9,-100.00,SSW,208,2.0,2.0,-999,-99.99,,,-99.99,,2013-03-29 20:23:00,
2013-03-29 16:33:00,45.0,-99.9,-100.00,SSW,208,2.0,2.0,-999,-99.99,,,-99.99,,2013-03-29 20:33:00,
2013-03-29 16:42:00,45.0,-99.9,-100.00,SSW,208,2.0,2.0,-999,-99.99,,,-99.99,,2013-03-29 20:42:00,
2013-03-29 16:52:00,46.0,-99.9,-100.00,SW,214,2.0,6.0,-999,-99.99,,,-99.99,,2013-03-29 20:52:00,
2013-03-29 17:02:00,46.0,-99.9,-100.00,SW,214,2.0,6.0,-999,-99.99,,,-99.99,,2013-03-29 21:02:00,
2013-03-29 17:12:00,46.0,-99.9,-100.00,SW,214,2.0,6.0,-999,-99.99,,,-99.99,,2013-03-29 21:12:00,
2013-03-29 17:22:00,41.0,-99.9,-100.00,NW,320,2.0,3.0,-999,-99.99,,,-99.99,,2013-03-29 21:22:00,
2013-03-29 17:33:00,41.0,-99.9,-100.00,NW,320,2.0,3.0,-999,-99.99,,,-99.99,,2013-03-29 21:33:00,
2013-03-29 17:43:00,41.0,-99.9,-100.00,NW,315,2.0,5.0,-999,-99.99,,,-99.99,,2013-03-29 21:43:00,
2013-03-29 17:53:00,41.0,-99.9,-100.00,NW,315,2.0,5.0,-999,-99.99,,,-99.99,,2013-03-29 21:53:00,
2013-03-29 18:03:00,41.0,-99.9,-100.00,NW,315,2.0,5.0,-999,-99.99,,,-99.99,,2013-03-29 22:03:00,
2013-03-29 18:13:00,41.0,-99.9,-100.00,NW,315,2.0,5.0,-999,-99.99,,,-99.99,,2013-03-29 22:13:00,
2013-03-29 18:23:00,40.0,-99.9,-100.00,NNW,342,5.0,5.0,-999,-99.99,,,-99.99,,2013-03-29 22:23:00,
2013-03-29 18:34:00,40.0,-99.9,-100.00,NNW,342,5.0,5.0,-999,-99.99,,,-99.99,,2013-03-29 22:34:00,
2013-03-29 18:43:00,40.0,-99.9,-100.00,NNW,347,5.0,5.0,-999,-99.99,,,-99.99,,2013-03-29 22:43:00,
2013-03-29 18:54:00,40.0,-99.9,-100.00,NNW,347,5.0,5.0,-999,-99.99,,,-99.99,,2013-03-29 22:54:00,
2013-03-29 19:03:00,40.0,-99.9,-100.00,NNW,347,5.0,5.0,-999,-99.99,,,-99.99,,2013-03-29 23:03:00,
2013-03-29 19:12:00,40.0,-99.9,-100.00,NNW,347,5.0,5.0,-999,-99.99,,,-99.99,,2013-03-29 23:12:00,
2013-03-29 19:22:00,43.0,-99.9,-100.00,North,355,5.0,7.0,-999,-99.99,,,-99.99,,2013-03-29 23:22:00,
2013-03-29 19:33:00,43.0,-99.9,-100.00,North,355,5.0,7.0,-999,-99.99,,,-99.99,,2013-03-29 23:33:00,
2013-03-29 19:43:00,41.0,-99.9,-100.00,North,358,7.0,8.0,-999,-99.99,,,-99.99,,2013-03-29 23:43:00,
2013-03-29 19:53:00,41.0,-99.9,-100.00,North,358,7.0,8.0,-999,-99.99,,,-99.99,,2013-03-29 23:53:00,
2013-03-29 20:03:00,41.0,-99.9,-100.00,North,358,7.0,8.0,-999,-99.99,,,-99.99,,2013-03-30 00:03:00,
2013-03-29 20:13:00,41.0,-99.9,-100.00,North,358,7.0,8.0,-999,-99.99,,,-99.99,,2013-03-30 00:13:00,
2013-03-29 20:23:00,41.0,-99.9,-100.00,North,1,5.0,7.0,-999,-99.99,,,-99.99,,2013-03-30 00:23:00,
2013-03-29 20:33:00,41.0,-99.9,-100.00,North,1,5.0,7.0,-999,-99.99,,,-99.99,,2013-03-30 00:33:00,
2013-03-29 20:43:00,41.0,-99.9,-100.00,North,8,5.0,8.0,-999,-99.99,,,-99.99,,2013-03-30 00:43:00,
2013-03-29 20:53:00,41.0,-99.9,-100.00,North,8,5.0,8.0,-999,-99.99,,,-99.99,,2013-03-30 00:53:00,
2013-03-29 21:03:00,41.0,-99.9,-100.00,North,8,5.0,8.0,-999,-99.99,,,-99.99,,2013-03-30 01:03:00,
2013-03-29 21:13:00,41.0,-99.9,-100.00,North,8,5.0,8.0,-999,-99.99,,,-99.99,,2013-03-30 01:13:00,
2013-03-29 21:23:00,37.0,-99.9,-100.00,North,0,2.0,4.0,-999,-99.99,,,-99.99,,2013-03-30 01:23:00,
2013-03-29 21:33:00,38.0,-99.9,-100.00,NNE,14,3.0,6.0,-999,-99.99,,,-99.99,,2013-03-30 01:33:00,
2013-03-29 21:43:00,38.0,-99.9,-100.00,NNE,14,3.0,6.0,-999,-99.99,,,-99.99,,2013-03-30 01:43:00,
2013-03-29 21:53:00,38.0,-99.9,-100.00,NNE,14,3.0,6.0,-999,-99.99,,,-99.99,,2013-03-30 01:53:00,
2013-03-29 22:03:00,38.0,-99.9,-100.00,NNE,14,3.0,6.0,-999,-99.99,,,-99.99,,2013-03-30 02:03:00,
2013-03-29 22:13:00,38.0,-99.9,-100.00,NNE,14,3.0,6.0,-999,-99.99,,,-99.99,,2013-03-30 02:13:00,
2013-03-29 22:23:00,36.0,-99.9,-100.00,WSW,253,0.0,0.0,-999,-99.99,,,-99.99,,2013-03-30 02:23:00,
2013-03-29 22:33:00,36.0,-99.9,-100.00,WSW,253,0.0,0.0,-999,-99.99,,,-99.99,,2013-03-30 02:33:00,
2013-03-29 22:43:00,36.0,-99.9,-100.00,NNE,14,0.0,7.0,-999,-99.99,,,-99.99,,2013-03-30 02:43:00,
2013-03-29 22:53:00,36.0,-99.9,-100.00,NNE,14,0.0,7.0,-999,-99.99,,,-99.99,,2013-03-30 02:53:00,
2013-03-29 23:03:00,36.0,-99.9,-100.00,NNE,14,0.0,7.0,-999,-99.99,,,-99.99,,2013-03-30 03:03:00,
2013-03-29 23:12:00,34.0,-99.9,-100.00,NNE,13,2.0,5.0,-999,-99.99,,,-99.99,,2013-03-30 03:12:00,
2013-03-29 23:22:00,34.0,-99.9,-100.00,NNE,13,3.0,3.0,-999,-99.99,,,-99.99,,2013-03-30 03:22:00,
2013-03-29 23:33:00,34.0,-99.9,-100.00,NNE,13,3.0,3.0,-999,-99.99,,,-99.99,,2013-03-30 03:33:00,
2013-03-29 23:44:00,34.0,-99.9,-100.00,NNE,13,3.0,3.0,-999,-99.99,,,-99.99,,2013-03-30 03:44:00,
2013-03-29 23:53:00,34.0,-99.9,-100.00,NNE,13,2.0,5.0,-999,-99.99,,,-99.99,,2013-03-30 03:53:00,